Historique des stations

Retrouvez les conditions météo en temps réel en cliquant ici...

Station météo de Audes

Altitude de la station : 238 m







Données météorologiques pour le 20/10/2020
Date
Heure
Températures Humidité Point de rosée Vitesse
du vent
Direction Rafales Windchill Pression Pluviométrie
Cumul
Date
Heure
Températures Humidité Point de rosée Vitesse
du vent
Direction Rafales Windchill Pression Pluviométrie
Cumul
20/10/2020 20:0016.2 °C73 %11.1 °C11 km/hENE13 km/h15.6 1006 hPa-
20/10/2020 19:4516.1 °C73 %11.1 °C2 km/hSE13 km/h16.1 1007 hPa-
20/10/2020 19:3016.2 °C73 %11.1 °C2 km/hSE13 km/h16.1 1007 hPa-
20/10/2020 19:1416.4 °C73 %11.7 °C2 km/hSE13 km/h16.7 1007 hPa-
20/10/2020 18:5916.5 °C74 %11.7 °C8 km/hSSE13 km/h16.7 1007 hPa-
20/10/2020 18:4416.7 °C74 %12.2 °C3 km/hSSE13 km/h16.7 1008 hPa-
20/10/2020 18:2916.9 °C74 %12.2 °C5 km/hESE11 km/h16.7 1008 hPa-
20/10/2020 18:1417.0 °C75 %12.8 °C2 km/hESE11 km/h17.2 1008 hPa-
20/10/2020 17:5917.1 °C77 %12.8 °C3 km/hSSE11 km/h17.2 1008 hPa-
20/10/2020 17:4417.6 °C76 %13.3 °C-S11 km/h17.8 1008 hPa-
20/10/2020 17:2917.7 °C74 %12.8 °C2 km/hS11 km/h17.8 1009 hPa-
20/10/2020 17:1417.8 °C75 %13.3 °C-SE11 km/h17.8 1008 hPa-
20/10/2020 16:5917.7 °C74 %12.8 °C2 km/hSE11 km/h17.8 1009 hPa-
20/10/2020 16:4417.7 °C75 %13.3 °C2 km/hSE11 km/h17.8 1009 hPa-
20/10/2020 16:2817.3 °C76 %12.8 °C3 km/hSSE10 km/h17.2 1009 hPa-
20/10/2020 16:1417.1 °C79 %13.3 °C-E10 km/h17.2 1009 hPa-
20/10/2020 15:5916.8 °C80 %13.3 °C6 km/hENE10 km/h16.7 1009 hPa-
20/10/2020 15:4417.0 °C80 %13.3 °C2 km/hE10 km/h17.2 1009 hPa-
20/10/2020 15:2917.2 °C77 %13.3 °C3 km/hE10 km/h17.2 1009 hPa-
20/10/2020 15:1417.1 °C76 %12.8 °C2 km/hE10 km/h17.2 1009 hPa-
20/10/2020 14:5916.8 °C77 %12.8 °C3 km/hENE10 km/h16.7 1010 hPa-
20/10/2020 14:4416.6 °C79 %12.8 °C2 km/hENE10 km/h16.7 1010 hPa-
20/10/2020 14:2916.5 °C82 %13.3 °C2 km/hENE10 km/h16.7 1010 hPa-
20/10/2020 14:1516.2 °C80 %12.8 °C2 km/hENE10 km/h16.1 1010 hPa-
20/10/2020 14:0016.1 °C82 %13.3 °C2 km/hNE10 km/h16.1 1010 hPa-
20/10/2020 13:4515.9 °C81 %12.8 °C-NE10 km/h16.1 1010 hPa-
20/10/2020 13:3015.6 °C83 %12.8 °C2 km/hE10 km/h15.6 1010 hPa-
20/10/2020 13:1515.0 °C82 %12.2 °C-E10 km/h15.0 1011 hPa-
20/10/2020 13:0015.0 °C85 %12.8 °C3 km/hE10 km/h15.0 1011 hPa-
20/10/2020 12:4515.1 °C83 %12.2 °C2 km/hE10 km/h15.0 1011 hPa-
20/10/2020 12:3014.8 °C82 %11.7 °C-E10 km/h15.0 1011 hPa-
20/10/2020 12:1514.4 °C82 %11.7 °C3 km/hE10 km/h14.4 1011 hPa-
20/10/2020 12:0014.7 °C84 %12.2 °C3 km/hE10 km/h14.4 1011 hPa-
20/10/2020 11:4514.6 °C79 %11.1 °C3 km/hE10 km/h14.4 1011 hPa-
20/10/2020 11:3014.2 °C80 %10.6 °C2 km/hS10 km/h14.4 1011 hPa-
20/10/2020 11:1514.1 °C80 %10.6 °C2 km/hESE10 km/h13.9 1011 hPa-
20/10/2020 11:0013.8 °C79 %10.0 °C-ESE10 km/h13.9 1010 hPa-
20/10/2020 10:4513.6 °C80 %10.0 °C-ESE10 km/h13.3 1011 hPa-
20/10/2020 10:3013.3 °C81 %10.0 °C2 km/hESE10 km/h13.3 1011 hPa-
20/10/2020 10:1513.2 °C81 %10.0 °C2 km/hESE10 km/h13.3 1011 hPa-
20/10/2020 10:0013.0 °C80 %9.4 °C3 km/hSSE10 km/h12.8 1011 hPa-
20/10/2020 09:4512.9 °C80 %9.4 °C2 km/hSSE10 km/h12.8 1011 hPa-
20/10/2020 09:3013.1 °C79 %9.4 °C5 km/hESE10 km/h13.3 1010 hPa-
20/10/2020 09:1412.8 °C78 %8.9 °C-SSO10 km/h12.8 1011 hPa-
20/10/2020 09:0012.8 °C77 %8.9 °C3 km/hSSE10 km/h12.8 1011 hPa-
20/10/2020 08:4513.0 °C76 %8.9 °C-SSE10 km/h12.8 1010 hPa-
20/10/2020 08:2912.9 °C76 %8.9 °C2 km/hS10 km/h12.8 1010 hPa-
20/10/2020 08:1412.8 °C77 %8.9 °C3 km/hS10 km/h12.8 1010 hPa-
20/10/2020 07:5912.4 °C78 %8.9 °C2 km/hOSO10 km/h12.2 1010 hPa-
20/10/2020 07:4412.2 °C78 %8.3 °C3 km/hSO10 km/h12.2 1010 hPa-
20/10/2020 07:2912.2 °C78 %8.3 °C2 km/hE10 km/h12.2 1010 hPa-
20/10/2020 07:1412.0 °C78 %8.3 °C5 km/hENE10 km/h12.2 1010 hPa-
20/10/2020 06:5911.8 °C79 %8.3 °C2 km/hSO10 km/h11.7 1011 hPa-
20/10/2020 06:4412.1 °C77 %8.3 °C-E10 km/h12.2 1011 hPa-
20/10/2020 06:2912.2 °C75 %7.8 °C-E10 km/h12.2 1011 hPa-
20/10/2020 06:1413.1 °C74 %8.3 °C3 km/hE10 km/h13.3 1011 hPa-
20/10/2020 05:5913.5 °C71 %8.3 °C2 km/hE10 km/h13.3 1011 hPa-
20/10/2020 05:4413.4 °C70 %7.8 °C2 km/hSE10 km/h13.3 1011 hPa-
20/10/2020 05:2913.1 °C71 %7.8 °C2 km/hS10 km/h13.3 1011 hPa-
20/10/2020 05:1412.6 °C73 %7.8 °C-SSO10 km/h12.8 1011 hPa-
20/10/2020 04:5912.4 °C73 %7.8 °C-S10 km/h12.2 1011 hPa-
20/10/2020 04:4412.3 °C75 %7.8 °C2 km/hS10 km/h12.2 1011 hPa-
20/10/2020 04:2911.7 °C77 %7.8 °C3 km/hOSO10 km/h11.7 1011 hPa-
20/10/2020 04:1411.2 °C78 %7.8 °C2 km/hNE8 km/h11.1 1011 hPa-
20/10/2020 03:5911.3 °C78 %7.8 °C3 km/hESE8 km/h11.1 1011 hPa-
20/10/2020 03:4510.9 °C79 %7.2 °C3 km/hNE8 km/h11.1 1011 hPa-
20/10/2020 03:3010.5 °C80 %7.2 °C2 km/hSE8 km/h10.6 1011 hPa-
20/10/2020 03:159.9 °C82 %7.2 °C3 km/hSSE8 km/h9.4 1011 hPa-
20/10/2020 02:599.8 °C82 %6.7 °C2 km/hSE5 km/h10.0 1011 hPa-
20/10/2020 02:459.5 °C83 %6.7 °C-SE5 km/h9.4 1011 hPa-
20/10/2020 02:309.3 °C84 %6.7 °C-SE5 km/h9.4 1012 hPa-
20/10/2020 02:159.1 °C85 %6.7 °C2 km/hSE5 km/h8.9 1011 hPa-
20/10/2020 02:008.9 °C86 %6.7 °C2 km/hSE5 km/h8.9 1011 hPa-
20/10/2020 01:459.0 °C86 %6.7 °C2 km/hSE5 km/h8.9 1011 hPa-
20/10/2020 01:308.9 °C86 %6.7 °C2 km/hSE5 km/h8.9 1012 hPa-
20/10/2020 01:159.0 °C86 %6.7 °C2 km/hSE5 km/h8.9 1012 hPa-
20/10/2020 01:009.2 °C85 %6.7 °C-SE5 km/h9.4 1012 hPa-
20/10/2020 00:459.3 °C86 %7.2 °C-SE5 km/h9.4 1012 hPa-
20/10/2020 00:309.2 °C86 %7.2 °C-SE5 km/h9.4 1012 hPa-
20/10/2020 00:159.3 °C86 %7.2 °C3 km/hESE3 km/h8.9 1012 hPa-
20/10/2020 00:009.5 °C85 %7.2 °C-E18 km/h9.4 1012 hPa-


Minima :

Température : 8.9 °C
Humidité : 70 %
Point de rosée : 6.7 °C
Vent moyen : 2 km/h
Windchill : 8.9
Pression atm. : 1006 hPa
Maxima :

Température : 17.8 °C
Humidité : 86 %
Point de rosée : 13.3 °C
Vent moyen : 11 km/h
Windchill : 17.8
Pression atm. : 1012 hPa
Rafales max : 18 km/h
Cumul de pluie sur 24H : 0 mm

Audes est une commune du département Allier (03).
La station météorologique du réseau de l'association la plus proche de Audes n'a pas encore été identifiée.



Icône Facebook Association Météo Centre Icône Twitter Association Météo Centre Icône Chaîne Youtube Association Météo Centre Icône contact Association Météo Centre Icône Insta Association Météo Centre